Погода в Камышлове

Погода в Камышлове : погода сейчас, прогноз погоды и архив. Всё, что Вы хотите узнать о погоде в Камышлове!

Хотите узнать прогноз погоды в Камышлове? Тогда Вам сюда: Погода в Камышлове

Поиск расширенной информации на нашем сайте:

Другие новости

Новости СМИ2

Главная страница сайта

Новости сайта

03.07.2017

Напоминаем, что на нашем специализированном сайте Метеоцентр.Азия вы можете получить высокодетализированные автоматические прогнозы погоды по пунктам России, СНГ и мира в авиационном формате (включающие направление и скорость ветра, видимость, явления погоды, количество и форму облачности, нижнюю и верхнюю границу облачности).


Погода в Камышлове - сегодня

Время (UTC), дата Ветер
(°,м/с) 
Видим.   Явления Облачность Т
(°С)
Тd
(°С)
f(%) Тe
(°С)
Pmin
(гПа)
dP
(гПа)
Po
(мм)
O2
(г/м3)
Тmin Tmax R s Состояние
почвы
06 19.07.17 270 (З) 20000 м    4/4 600 м 
[Cu med, cong]
+25 +12.2 45 +29  1015.8  -0.5  751  275           
09 19.07.17 220 (ЮЗ) 20000 м    8/5 600 м верхняя 
[Cu med, cong|Ci fib]
+26 +11.8 41 +30  1014.6  -1.2  750  274           
12 19.07.17 240 (ЮЗ) 20000 м    6/4 600 м верхняя 
[Cu med, cong|Ci sp]
+26 +10.4 38 +28  1013.3  -1.3  749  274           
18 19.07.17 110 (В) 4000 м    4/0 средняя, верхняя 
[Ac trans|Ci fib]
+19 +13.1 69 +27  1013.1  -0.2  749  279           
21 19.07.17 тихо ()   4000 м    3/0 верхняя 
[Ci fib]
+15 +12.4 84 +20  1012.8  -0.5  748  283           
00 20.07.17 тихо ()   2000 м  дымка  6/0 средняя, верхняя 
[Ac lent|Ci fib]
+12.1 +10.4 89 +14  1012.9  -0.1  748  287           
06 20.07.17 100 (В) 20000 м    8/5 600 м средняя 
[Cu med, cong|Ac trans]
+24.9 +14.3 52 +32  1012.5  0.2  749  274           
09 20.07.17 050 (СВ) 20000 м    8/6 600 м верхняя 
[Cu med, cong|Ci fib]
+27.4 +9.5 33 +28  1011.8  -0.6  748  272           
12 20.07.17 360 (С) 20000 м    9/6 600 м верхняя 
[Cu med, cong|Ci fib]
+26.8 +11.6 39 +30  1011.5  -0.3  748  272           
18 20.07.17 030 (СВ) 4000 м  {гроза}  ясно 
+15.7 +13.7 88 +24  1013.4  0.6  749  283           
21 20.07.17 010 (С) 4000 м    ясно 
+13.4 +12 91 +19  1013.7  0.1  749  285           
00 21.07.17 330 (СЗ) 20000 м    ясно 
+11.5 +10.3 92 +15  1014.7  0.9  750  288           
06 21.07.17 040 (СВ) 20000 м    ясно 
+24.6 +15 55 +33  1014.6  750  274           
09 21.07.17 080 (В) 20000 м    3/3 600 м кучево-дожд. 
[Cb cap]
+26.5 +10.6 37 +28  1014.4  -0.2  750  274           
12 21.07.17 360 (С) 20000 м    ясно 
+27.2 +9.7 33 +28  1013.7  -0.8  749  273           
15 21.07.17 080 (В) 20000 м    ясно 
+23.8 +14.1 55 +31  1013.5  -0.1  749  275    +27.6       
18 21.07.17 100 (В) 4000 м    ясно 
+20.9 +12.8 60 +26  1013.6  -0.1  749  278           
21 21.07.17 120 (ЮВ) 4000 м    ясно 
+15.8 +12.7 82 +22  1013  -0.8  749  283           
00 22.07.17 тихо ()   20000 м    ясно 
+13.9 +12.1 89 +18  1012.7  -0.4  748  285           
06 22.07.17 190 (Ю) 20000 м    3/3 600 м 
[Cu med, cong]
+25.6 +16.2 56 +37  1011.2  -1  748  272           
09 22.07.17 090 (В) 20000 м    3/3 600 м 
[Cu med, cong]
+25.6 +16.2 56 +37  1010.2  -1  747  272           
12 22.07.17 130 (ЮВ) 4{10}  20000 м    9/9 600 м 
[Cu med, cong]
+23.1 +15.3 61 +32  1009.2  -1.1  746  274           
18 22.07.17 340 (С) 4000 м  {гроза}  8/8 600 м кучево-дожд. 
[Cb cap]
+16.8 +14.9 89 +27  1008.6  -0.5  745  280           
21 22.07.17 280 (З) 2000 м  дымка  ясно 
+14.6 +13.4 93 +21  1008  -0.8  745  282           
00 23.07.17 280 (З) 1000 м  дымка  ясно 
+14.7 +13.6 93 +22  1008.4  0.5  745  282           
Время (UTC), дата Ветер
(°,м/с) 
Видим.   Явления Облачность Т
(°С)
Тd
(°С)
f(%) Тe
(°С)
Pmin
(гПа)
dP
(гПа)
Po
(мм)
O2
(г/м3)
Тmin Tmax R s Состояние
почвы

Для получения пояснительной информации подведите курсор к названию столбца.

ПОГОДА в Камышлове - архив

Всё, что Вы хотите узнать о погоде в Камышлове - удобно и подробно!

Выберите нужную дату (начиная с 1 января 2015* года) и нажмите кнопку "Найти".
Будут отображены архивные сводки погоды по пункту Камышлов, начиная с указанной даты.


Отображать данные в формате CSV (для использования в таблицах Excel)


Внимание! Наш архив погоды предназначен исключительно для личного некоммерческого использования в познавательных целях. Если Вам необходимы официальные справки о состоянии погоды (для производственных, юридических, коммерческих и т.п. целей), обращайтесь в органы Росгидромета.

*Примечание: данная дата относится к архиву по метеостанциям СССР (Россия, СНГ, Балтия).
Архив по метеостанциям Зарубежной Европы и Азии (кроме Китая) хранится 10 дней, по другим регионам земного шара (Китай, Африка, Америка, Австралия, Океания) - 1 день.

Камышлов - район местоположения метеостанции


Название, широта, долгота, высота метеостанции:
Камышлов 56.9°ш. 62.7°д. 127 м над ур. моря [Российская Федерация]

Дополнительная информация

В oтличие oт бoльшинства пoгoдных сайтoв мы публикуем пoдрoбную метеoинфoрмацию в детальнoм прoфессиoнальнoм фoрмате.

Характеристики температуры и влажнoсти вoздуха измеряются на высoте 2 м в тени вдали oт зданий и деревьев.
Скoрoсть ветра измеряется на высoте 10 м (на урoвне рoста челoвека скoрoсть ветра ниже в 1.5-2 раза). Если метеoстанция нахoдится в гoрoде или в лесу, тo скoрoсть ветра занижена на 2-4 м/с пo сравнению с oткрытым местoм. Скoрoсть ветра над акватoриями крупных рек и oзёр, а также на вершинах хoлмoв на 2-5 м/с выше, чем в oбычных услoвиях.
Атмoсфернoе давление в разных тoчках местнoсти мoжет значительнo oтличаться oт давления на метеoстанции, в зависимoсти oт услoвий рельефа (при пoдъёме на 10 м давление пoнижается примернo на 1 мм рт.ст.).